Regional Weather Roundup
Issued by NWS Midland/Odessa, TX

Skip options and go directly to product.
Home | Oldest Version | Previous Version | Current Version | All | Graphics & Text | Save Text | Print | Product List | Glossary On

Skip product version selection by date and time.   
909
ASUS44 KMAF 282010
RWRMAF
MIDLAND AREA WEATHER ROUNDUP
NATIONAL WEATHER SERVICE MIDLAND TX
200 PM CST FRI NOV 28 2014

...IN SOUTHWEST TEXAS AND SOUTHEAST NEW MEXICO...

CITY           SKY/WX    TMP DP  RH WIND       PRES   REMARKS
ALPINE         SUNNY     70  19  14 SW22      30.21F
ANDREWS        FAIR      71  25  18 SW12G21   30.07F
ARTESIA        NOT AVBL
BIG SPRING     SUNNY     74  29  19 SW17G24   30.09F
CARLSBAD       SUNNY     67  30  25 SE3       30.05F
DRYDEN           N/A     67  35  30 S9        30.12F
FORT STOCKTON  SUNNY     78  13   8 SW16      30.08F
GUAD PASS      NOT AVBL
HOBBS          SUNNY     68  27  21 S10       30.08F
MARFA          SUNNY     70  19  14 S17       30.21F
MIDLAND AIRPK  SUNNY     72  29  20 SW10G16   30.08F
MIDLAND INTL   SUNNY     70  30  22 SW12      30.08F
ODESSA         SUNNY     70  27  20 SW13      30.08F
PECOS          SUNNY     73  27  18 SE7       30.07F
PRESIDIO       FAIR      66  26  22 CALM      30.15F
SEMINOLE       SUNNY     71  27  19 SW12      30.07F
SNYDER         SUNNY     71  34  25 SW20G25   30.04F
WINK           SUNNY     73  25  16 S10       30.06F
$$
...OTHER STATIONS IN TEXAS...

CITY           SKY/WX    TMP DP  RH WIND       PRES   REMARKS
ABILENE        SUNNY     70  44  39 S22G29    30.05F
AMARILLO       SUNNY     81  11   7 W20G26    29.92F
AUSTIN         MOSUNNY   72  50  45 S16       30.16F
BROWNSVILLE    SUNNY     77  56  48 S17       30.19F
CORPUS CHRISTI MOSUNNY   75  52  44 S15       30.19F
DALLAS FTW     MOSUNNY   68  48  48 S21G32    30.06F
DEL RIO        SUNNY     68  47  46 SE10      30.14F
EL PASO        MOSUNNY   65  20  17 S5        30.15F
HOUSTON INT    PTSUNNY   70  55  59 S8        30.21F
LUBBOCK        MOSUNNY   75  27  17 SW18      30.00F
SAN ANGELO     SUNNY     72  38  29 S20G28    30.09F
SAN ANTONIO    MOSUNNY   71  47  42 S15G26    30.18F
WACO           SUNNY     69  50  50 SW23      30.13F
WICHITA FALLS  NOT AVBL
$$
...OTHER LOCATIONS IN NEW MEXICO...

CITY           SKY/WX    TMP DP  RH WIND       PRES   REMARKS
ALAMAGORDO     SUNNY     64  21  19 CALM      30.17F
ALBUQUERQUE    MOSUNNY   57  21  24 S8        30.18F
CANNON AFB     MOSUNNY   74  19  12 W15G23    30.03F
CLOVIS         MOSUNNY   73  21  14 W18       30.02F
HOLLOMAN AFB   SUNNY     64  23  20 S3        30.15F
ROSWELL        SUNNY     66  25  21 SE6       30.06F
RUIDOSO        SUNNY     64  21  19 NW9       30.22F
SANTA FE       SUNNY     55  17  22 SW8       30.18F
TRUTH OR CONSE SUNNY     63  22  20 S9        30.15F
TUCUMCARI      SUNNY     79  12   8 W25G36    29.95F
$$

USA.gov is the U.S. government's official web portal to all federal, state and local government web resources and services.